Regional Weather Roundup
Issued by NWS Sioux Falls, SD

Home | Current Version | Previous Version | Text Only | Print | Product List | Glossary Off
Versions: 1 2 3 4 5 6 7 8 9 10 11 12 13 14 15 16 17 18 19 20 21 22 23 24 25 26 27 28 29 30 31 32 33 34 35 36 37 38 39 40 41 42 43 44 45 46 47 48 49 50

000
ASUS43 KFSD 231002
RWRFSD

WEATHER ROUNDUP FOR SE SOUTH DAKOTA/SW MINNESOTA/NW IOWA
NATIONAL WEATHER SERVICE SIOUX FALLS SD
500 AM CDT SAT MAY 23 2015

NOTE: "FAIR" INDICATES FEW OR NO CLOUDS BELOW 12,000 FEET WITH NO
SIGNIFICANT WEATHER AND OR OBSTRUCTIONS TO VISIBILITY.


SDZ038>040-050-052>070-231100-
SOUTHEAST SOUTH DAKOTA

CITY           SKY/WX    TMP DP  RH WIND       PRES   REMARKS
BROOKINGS      CLOUDY    52  46  82 CALM      30.22S
CHAMBERLAIN    CLOUDY    50  47  90 SE12      30.14F
HURON          CLOUDY    51  47  86 SE5       30.19S
MADISON        CLOUDY    50  50 100 NE3       30.20F
MITCHELL       CLOUDY    53  49  86 E7        30.18F
SIOUX FALLS    CLOUDY    57  45  64 SE8       30.19S
WINNER         LGT RAIN  51  48  89 SE10      30.12F FOG
YANKTON        CLOUDY    54  48  82 E5        30.18F
$$

MNZ071-072-080-081-089-090-097-098-231100-
SOUTHWEST MINNESOTA

CITY           SKY/WX    TMP DP  RH WIND       PRES   REMARKS
FAIRMONT       CLOUDY    55  43  62 W8        30.25R
JACKSON        LGT RAIN  54  50  87 NE8       30.23F
LUVERNE        CLOUDY    55  46  71 S3        30.22R
MARSHALL       MOCLDY    54  43  66 SE3       30.22F
MONTEVIDEO     PTCLDY    52  46  82 CALM      30.24S
REDWOOD FALLS  MOCLDY    54  44  69 SW3       30.24R
TRACY          CLOUDY    56  46  71 E3        30.23F
WINDOM         LGT RAIN  57  45  62 CALM      30.25S
WORTHINGTON    CLOUDY    54  45  71 SE6       30.22S
$$

IAZ001>003-012>014-020>022-031-032-NEZ013-014-SDZ071-231100-
NORTHWEST IOWA

CITY           SKY/WX    TMP DP  RH WIND       PRES   REMARKS
DENISON        CLOUDY    54  52  94 SE5       30.20S
ESTHERVILLE    CLOUDY    54  49  83 E6        30.23S
SIOUX CITY     CLOUDY    55  50  83 SE7       30.20R
SPENCER        CLOUDY    55  50  83 SE6       30.22S
$$

ABBREVIATIONS USED IN REMARKS
   TC - TEMPERATURE IN CELSIUS
  WCI - WIND CHILL INDEX
   HX - HEAT INDEX
  VSB - VISIBILITY



USA.gov is the U.S. government's official web portal to all federal, state and local government web resources and services.